Location: Chester
(43.2647°N, 72.5958°W)
Time: 07:11:22
(UTC-04:00)

N. Korean satellite - Visible Passes

Search period start: 26 September 2018 00:00
Search period end: 06 October 2018 00:00
Orbit: 458 x 511 km, 97.2° (Epoch: 24 September)

Date Brightness Start Highest point End Pass type
(mag) Time Alt. Az. Time Alt. Az. Time Alt. Az.
27 Sep 10.5 19:41:03 10° WSW 19:41:52 11° W 19:42:41 10° WNW visible
28 Sep 9.7 19:14:34 10° SW 19:17:17 21° W 19:20:05 10° NW visible
30 Sep 10.2 06:16:06 10° NE 06:18:22 15° E 06:20:37 10° SE visible
01 Oct 10.2 19:36:22 10° WSW 19:37:49 12° W 19:39:18 10° WNW visible
02 Oct 9.5 19:10:21 10° SSW 19:13:15 23° W 19:16:13 10° NW visible
04 Oct 10.3 06:12:20 10° ENE 06:14:19 14° E 06:16:17 10° ESE visible
05 Oct 10.1 19:31:52 10° WSW 19:33:44 14° W 19:35:38 10° WNW visible
